EW5523 Weather Reports


Display with metric or nautical units.
time (UTC)temp
F
wind
direction
speed
MPH
gust
MPH
rain 1hr
in
rain 24hr
in
rain mn
in
humidity
%
barometer
mb
20260506040003 66 296 0.0 5.0 0.00 0.00 0.00 53 1007.6
20260506034606 65 167 0.0 2.0 0.00 0.00 0.00 54 1007.4
20260506033058 64 201 0.0 6.0 0.00 0.00 0.00 55 1007.2
20260506031600 63 204 0.0 1.0 0.00 0.00 0.00 56 1007.3
20260506030057 62 222 0.0 4.0 0.00 0.00 0.00 57 1007.3
20260506024603 61 200 0.0 3.0 0.00 0.00 0.00 59 1007.2
20260506023057 60 189 0.0 1.0 0.00 0.00 0.00 60 1007.1
20260506021555 59 201 0.0 0.0 0.00 0.00 0.00 62 1007.2
20260506020118 58 196 0.0 0.0 0.00 0.00 0.00 64 1007.0
20260506014551 58 196 0.0 0.0 0.00 0.00 0.00 65 1007.0
20260506013051 57 196 0.0 0.0 0.00 0.00 0.00 65 1006.9
20260506011551 56 196 0.0 0.0 0.00 0.00 0.00 66 1006.8
20260506010051 56 196 0.0 0.0 0.00 0.00 0.00 66 1006.8
20260506004549 56 196 0.0 0.0 0.00 0.00 0.00 66 1006.7
20260506003048 57 195 0.0 0.0 0.00 0.00 0.00 65 1006.7
20260506001554 57 195 0.0 0.0 0.00 0.00 0.00 64 1006.7
20260506000056 58 196 0.0 0.0 0.00 0.00 0.00 62 1006.7
20260505234543 59 196 0.0 0.0 0.00 0.00 0.00 59 1006.7
20260505233044 59 195 0.0 0.0 0.00 0.00 0.00 59 1006.7
20260505231538 60 195 0.0 0.0 0.00 0.00 0.00 58 1006.7
20260505230042 60 194 0.0 0.0 0.00 0.00 0.00 58 1006.7
20260505224543 61 220 0.0 0.0 0.00 0.00 0.00 57 1006.8
20260505223037 61 221 0.0 2.0 0.00 0.00 0.00 57 1006.8
20260505221530 61 197 0.0 1.0 0.00 0.00 0.00 57 1006.9
20260505220028 62 185 0.0 1.0 0.00 0.00 0.00 56 1006.8
20260505214528 62 230 0.0 1.0 0.00 0.00 0.00 56 1006.7
20260505213029 62 212 0.0 4.0 0.00 0.00 0.00 57 1006.8
20260505211531 62 208 0.0 0.0 0.00 0.00 0.00 57 1006.8
20260505210023 63 208 0.0 5.0 0.00 0.00 0.00 56 1006.8
20260505204523 63 203 0.0 4.0 0.00 0.00 0.00 56 1006.8
20260505203021 63 207 0.0 2.0 0.00 0.00 0.00 56 1006.9
20260505201518 64 210 0.0 1.0 0.00 0.00 0.00 55 1006.8
20260505200017 64 212 0.0 1.0 0.00 0.00 0.00 54 1006.9
20260505194516 65 213 0.0 3.0 0.00 0.00 0.00 54 1006.9
20260505193015 65 210 0.0 1.0 0.00 0.00 0.00 53 1006.9
20260505191518 65 197 0.0 0.0 0.00 0.00 0.00 53 1006.9
20260505190015 65 206 0.0 0.0 0.00 0.00 0.00 52 1006.9
20260505184514 65 199 0.0 0.0 0.00 0.00 0.00 52 1006.9
20260505183015 65 197 0.0 2.0 0.00 0.00 0.00 52 1007.0
20260505181513 66 218 0.0 0.0 0.00 0.00 0.00 51 1007.0
20260505180013 67 218 0.0 0.0 0.00 0.00 0.00 49 1007.0
20260505174518 67 218 0.0 0.0 0.00 0.00 0.00 48 1007.0
20260505173012 68 218 0.0 0.0 0.00 0.00 0.00 47 1007.0
20260505171517 68 218 0.0 0.0 0.00 0.00 0.00 46 1006.9
20260505170011 69 218 0.0 0.0 0.00 0.00 0.00 44 1006.9
20260505164510 70 218 0.0 0.0 0.00 0.00 0.00 43 1006.8
20260505163013 71 218 0.0 0.0 0.00 0.00 0.00 42 1006.6
20260505161510 72 218 0.0 1.0 0.00 0.00 0.00 40 1006.5
20260505153018 75 208 0.0 3.0 0.00 0.00 0.00 37 1006.2
20260505151508 75 234 0.0 6.0 0.00 0.00 0.00 36 1006.1
20260505124559 77 271 1.0 7.0 0.00 0.00 0.00 32 1006.6
20260505123106 78 251 1.0 6.0 0.00 0.00 0.00 33 1006.7
20260505121557 77 291 0.0 6.0 0.00 0.00 0.00 33 1006.5
20260505120112 77 177 0.0 10.0 0.00 0.00 0.00 33 1006.7
20260505114556 77 251 2.0 9.0 0.00 0.00 0.00 32 1006.8
20260505113053 76 281 0.0 4.0 0.00 0.00 0.00 34 1006.8
20260505111551 76 219 1.0 6.0 0.00 0.00 0.00 35 1006.9
20260505110108 76 148 0.0 5.0 0.00 0.00 0.00 35 1006.9
20260505101546 75 243 0.0 7.0 0.00 0.00 0.00 37 1007.1
20260505100043 75 134 2.0 9.0 0.00 0.00 0.00 39 1007.2
20260505094542 75 287 1.0 7.0 0.00 0.00 0.00 38 1007.3
20260505093042 74 218 1.0 5.0 0.00 0.00 0.00 38 1007.3
20260505091551 74 216 1.0 6.0 0.00 0.00 0.00 39 1007.5
20260505090039 74 31 0.0 5.0 0.00 0.00 0.00 39 1007.6
20260505084538 75 229 0.0 6.0 0.00 0.00 0.00 41 1007.7
20260505083041 74 159 1.0 7.0 0.00 0.00 0.00 41 1007.7
20260505081533 73 256 0.0 11.0 0.00 0.00 0.00 43 1007.8
20260505080031 73 252 0.0 8.0 0.00 0.00 0.00 43 1007.9
20260505074534 73 185 0.0 8.0 0.00 0.00 0.00 44 1008.0
20260505073028 72 209 1.0 4.0 0.00 0.00 0.00 46 1008.1
20260505071527 72 285 0.0 7.0 0.00 0.00 0.00 45 1008.1
20260505070024 72 168 0.0 3.0 0.00 0.00 0.00 49 1008.3
20260505064531 71 193 0.0 0.0 0.00 0.00 0.00 52 1008.3
20260505063019 70 168 0.0 2.0 0.00 0.00 0.00 52 1008.3
20260505061516 68 160 0.0 1.0 0.00 0.00 0.00 54 1008.2
20260505060014 67 280 0.0 4.0 0.00 0.00 0.00 56 1008.3
20260505054518 66 210 0.0 5.0 0.00 0.00 0.00 57 1008.3
20260505053008 66 283 0.0 3.0 0.00 0.00 0.00 57 1008.3
20260505051508 65 250 0.0 3.0 0.00 0.00 0.00 59 1008.4
20260505041603 61 230 0.0 3.0 0.00 0.00 0.00 67 1008.6
20260505040059 60 233 0.0 3.0 0.00 0.00 0.00 69 1008.6